• en Suisse
  • Liste des pays
  • À 7 jours
  • Température de l'eau
  • Carte satellitaire
  • Carte météo
  • Widgets météo
  • user-avatar
    Se connecter

    Météo par heure à Rivas

    Ce jour, 22 Novembre, Mercredi

    Heure Température Précipitation Vent Pression Humidité
    00:00 +25°C° 0 mm 2 m/s 752 mmHg 89%
    01:00 +25°C° 0,1 mm 2 m/s 752 mmHg 89%
    02:00 +25°C° 0,1 mm 2 m/s 751 mmHg 90%
    03:00 +25°C° 0,1 mm 2 m/s 751 mmHg 91%
    04:00 +25°C° 0 mm 2 m/s 751 mmHg 90%
    05:00 +25°C° 0 mm 2 m/s 751 mmHg 90%
    06:00 +25°C° 0 mm 2 m/s 752 mmHg 90%
    07:00 +27°C° 0 mm 2 m/s 752 mmHg 86%
    08:00 +28°C° 0 mm 2 m/s 752 mmHg 81%
    09:00 +29°C° 0 mm 3 m/s 753 mmHg 77%
    10:00 +30°C° 0 mm 3 m/s 753 mmHg 74%
    11:00 +30°C° 0 mm 3 m/s 752 mmHg 71%
    12:00 +31°C° 0 mm 2 m/s 752 mmHg 68%
    13:00 +31°C° 0 mm 2 m/s 751 mmHg 67%
    14:00 +31°C° 0 mm 2 m/s 751 mmHg 67%
    15:00 +31°C° 0 mm 2 m/s 750 mmHg 67%
    16:00 +30°C° 0,4 mm 2 m/s 751 mmHg 73%
    17:00 +28°C° 0,4 mm 2 m/s 751 mmHg 79%
    18:00 +27°C° 0,4 mm 1 m/s 751 mmHg 85%
    19:00 +26°C° 0,6 mm 1 m/s 752 mmHg 87%
    20:00 +26°C° 0,6 mm 1 m/s 752 mmHg 89%
    21:00 +26°C° 0,6 mm 1 m/s 753 mmHg 90%
    22:00 +26°C° 0,7 mm 1 m/s 753 mmHg 91%
    23:00 +26°C° 0,7 mm 2 m/s 752 mmHg 91%

    Demain, 23 Novembre, Jeudi

    Heure Température Précipitation Vent Pression Humidité
    00:00 +25°C° 0,7 mm 2 m/s 752 mmHg 92%
    01:00 +25°C° 0,8 mm 2 m/s 752 mmHg 92%
    02:00 +25°C° 0,8 mm 2 m/s 751 mmHg 92%
    03:00 +25°C° 0,8 mm 3 m/s 751 mmHg 92%
    04:00 +25°C° 0,2 mm 3 m/s 751 mmHg 92%
    05:00 +25°C° 0,2 mm 3 m/s 751 mmHg 92%
    06:00 +25°C° 0,2 mm 3 m/s 752 mmHg 92%
    07:00 +26°C° 0 mm 3 m/s 752 mmHg 87%
    08:00 +27°C° 0 mm 4 m/s 753 mmHg 83%
    09:00 +29°C° 0 mm 4 m/s 753 mmHg 78%
    10:00 +30°C° 0 mm 4 m/s 753 mmHg 74%
    11:00 +30°C° 0 mm 5 m/s 752 mmHg 70%
    12:00 +32°C° 0 mm 5 m/s 751 mmHg 66%
    13:00 +32°C° 0 mm 5 m/s 751 mmHg 66%
    14:00 +32°C° 0 mm 5 m/s 750 mmHg 66%
    15:00 +32°C° 0 mm 5 m/s 749 mmHg 66%
    16:00 +30°C° 0 mm 5 m/s 750 mmHg 70%
    17:00 +29°C° 0 mm 4 m/s 750 mmHg 75%
    18:00 +27°C° 0 mm 4 m/s 750 mmHg 79%
    19:00 +27°C° 0 mm 5 m/s 751 mmHg 79%
    20:00 +27°C° 0 mm 5 m/s 752 mmHg 79%
    21:00 +27°C° 0 mm 5 m/s 752 mmHg 79%
    22:00 +27°C° 0 mm 6 m/s 752 mmHg 79%
    23:00 +26°C° 0 mm 6 m/s 752 mmHg 80%

    Après-demain, 24 Novembre, Vendredi

    Heure Température Précipitation Vent Pression Humidité
    00:00 +26°C° 0 mm 6 m/s 752 mmHg 80%
    01:00 +26°C° 0 mm 6 m/s 752 mmHg 81%
    02:00 +26°C° 0 mm 6 m/s 751 mmHg 82%
    03:00 +24°C° 0 mm 6 m/s 751 mmHg 83%
    04:00 +24°C° 0 mm 6 m/s 751 mmHg 84%
    05:00 +24°C° 0 mm 6 m/s 751 mmHg 84%
    06:00 +24°C° 0 mm 6 m/s 752 mmHg 85%
    07:00 +26°C° 0 mm 6 m/s 752 mmHg 80%
    08:00 +27°C° 0 mm 6 m/s 753 mmHg 76%
    09:00 +28°C° 0 mm 6 m/s 753 mmHg 72%
    10:00 +29°C° 0 mm 6 m/s 753 mmHg 69%
    11:00 +30°C° 0 mm 6 m/s 752 mmHg 66%
    12:00 +32°C° 0 mm 6 m/s 752 mmHg 63%
    13:00 +32°C° 0 mm 6 m/s 751 mmHg 63%
    14:00 +32°C° 0 mm 5 m/s 750 mmHg 64%
    15:00 +32°C° 0 mm 5 m/s 750 mmHg 64%
    16:00 +30°C° 0 mm 5 m/s 750 mmHg 68%
    17:00 +29°C° 0 mm 4 m/s 751 mmHg 73%
    18:00 +27°C° 0 mm 3 m/s 751 mmHg 77%
    19:00 +27°C° 0,2 mm 4 m/s 752 mmHg 78%
    20:00 +27°C° 0,2 mm 5 m/s 752 mmHg 79%
    21:00 +27°C° 0,2 mm 5 m/s 753 mmHg 80%
    22:00 +27°C° 0 mm 6 m/s 753 mmHg 81%
    23:00 +27°C° 0 mm 6 m/s 753 mmHg 81%

    25 Novembre, Samedi

    Heure Température Précipitation Vent Pression Humidité
    00:00 +26°C° 0 mm 6 m/s 753 mmHg 81%
    01:00 +26°C° 0 mm 6 m/s 752 mmHg 80%
    02:00 +26°C° 0 mm 6 m/s 752 mmHg 80%
    03:00 +24°C° 0 mm 6 m/s 752 mmHg 79%
    04:00 +24°C° 0 mm 6 m/s 752 mmHg 79%
    05:00 +24°C° 0 mm 6 m/s 752 mmHg 79%
    06:00 +24°C° 0 mm 6 m/s 752 mmHg 80%
    07:00 +26°C° 0 mm 6 m/s 753 mmHg 75%
    08:00 +27°C° 0 mm 7 m/s 753 mmHg 71%
    09:00 +28°C° 0 mm 7 m/s 754 mmHg 67%
    10:00 +29°C° 0 mm 7 m/s 753 mmHg 65%
    11:00 +30°C° 0 mm 7 m/s 753 mmHg 63%
    12:00 +32°C° 0 mm 7 m/s 752 mmHg 61%
    13:00 +32°C° 0 mm 7 m/s 752 mmHg 63%
    14:00 +32°C° 0 mm 6 m/s 751 mmHg 65%
    15:00 +30°C° 0 mm 6 m/s 751 mmHg 67%
    16:00 +29°C° 0 mm 6 m/s 751 mmHg 71%
    17:00 +28°C° 0 mm 5 m/s 751 mmHg 75%
    18:00 +27°C° 0 mm 5 m/s 752 mmHg 78%
    19:00 +27°C° 0 mm 5 m/s 752 mmHg 78%
    20:00 +27°C° 0 mm 6 m/s 753 mmHg 78%
    21:00 +27°C° 0 mm 6 m/s 753 mmHg 78%
    22:00 +27°C° 0 mm 6 m/s 753 mmHg 77%
    23:00 +27°C° 0 mm 7 m/s 753 mmHg 77%

    26 Novembre, Dimanche

    Heure Température Précipitation Vent Pression Humidité
    00:00 +26°C° 0 mm 7 m/s 753 mmHg 77%
    01:00 +26°C° 0 mm 7 m/s 752 mmHg 76%
    02:00 +26°C° 0 mm 7 m/s 752 mmHg 75%
    03:00 +24°C° 0 mm 6 m/s 752 mmHg 74%
    04:00 +24°C° 0 mm 6 m/s 752 mmHg 74%
    05:00 +24°C° 0 mm 6 m/s 752 mmHg 75%
    06:00 +24°C° 0 mm 6 m/s 753 mmHg 75%
    07:00 +26°C° 0 mm 7 m/s 753 mmHg 73%
    08:00 +28°C° 0 mm 7 m/s 754 mmHg 70%
    09:00 +29°C° 0 mm 8 m/s 754 mmHg 68%
    10:00 +31°C° 0 mm 8 m/s 753 mmHg 67%
    11:00 +30°C° 0 mm 7 m/s 752 mmHg 66%
    12:00 +32°C° 0 mm 7 m/s 752 mmHg 65%
    13:00 +32°C° 0,1 mm 7 m/s 751 mmHg 66%
    14:00 +32°C° 0,1 mm 6 m/s 751 mmHg 67%
    15:00 +32°C° 0,1 mm 6 m/s 750 mmHg 68%
    16:00 +30°C° 0,5 mm 6 m/s 750 mmHg 72%
    17:00 +29°C° 0,5 mm 6 m/s 751 mmHg 76%
    18:00 +27°C° 0,5 mm 7 m/s 751 mmHg 80%
    19:00 +27°C° 0,1 mm 7 m/s 752 mmHg 79%
    20:00 +27°C° 0,1 mm 7 m/s 752 mmHg 79%
    21:00 +27°C° 0,1 mm 8 m/s 753 mmHg 79%
    22:00 +27°C° 0 mm 8 m/s 753 mmHg 78%
    23:00 +26°C° 0 mm 8 m/s 752 mmHg 78%

    27 Novembre, Lundi

    Heure Température Précipitation Vent Pression Humidité
    00:00 +26°C° 0 mm 8 m/s 752 mmHg 77%
    01:00 +26°C° 0 mm 8 m/s 752 mmHg 76%
    02:00 +26°C° 0 mm 8 m/s 752 mmHg 76%
    03:00 +24°C° 0 mm 8 m/s 751 mmHg 76%
    04:00 +24°C° 0 mm 7 m/s 752 mmHg 77%
    05:00 +24°C° 0 mm 7 m/s 752 mmHg 78%
    06:00 +24°C° 0 mm 7 m/s 752 mmHg 78%
    07:00 +26°C° 0 mm 8 m/s 753 mmHg 76%
    08:00 +27°C° 0 mm 8 m/s 753 mmHg 73%
    09:00 +28°C° 0 mm 8 m/s 753 mmHg 70%
    10:00 +28°C° 0 mm 8 m/s 753 mmHg 66%
    11:00 +29°C° 0 mm 8 m/s 752 mmHg 62%
    12:00 +31°C° 0 mm 8 m/s 751 mmHg 58%
    13:00 +30°C° 0 mm 7 m/s 751 mmHg 58%
    14:00 +30°C° 0 mm 7 m/s 750 mmHg 58%
    15:00 +30°C° 0 mm 7 m/s 750 mmHg 58%
    16:00 +29°C° 0 mm 6 m/s 750 mmHg 61%
    17:00 +28°C° 0 mm 6 m/s 750 mmHg 64%
    18:00 +27°C° 0 mm 5 m/s 751 mmHg 68%
    19:00 +27°C° 0 mm 6 m/s 751 mmHg 68%
    20:00 +27°C° 0 mm 6 m/s 752 mmHg 69%
    21:00 +27°C° 0 mm 6 m/s 752 mmHg 70%
    22:00 +27°C° 0 mm 7 m/s 752 mmHg 71%
    23:00 +27°C° 0 mm 7 m/s 752 mmHg 73%
    Voir plus